Arctic Village, AK

2:15 AM AKST on February 22, 2017 (GMT -0900)
Arctic Village

Weather History for PARC - April, 2014

Change the Weather History Date:

Sunday, April 13, 2014

  Actual Average Record
Temperature  
Mean Temperature 14 °F -  
Max Temperature 26 °F 32 °F 42 °F (1988)
Min Temperature 1 °F 3 °F -28 °F (1992)
Degree Days  
Heating Degree Days 52    
Moisture  
Dew Point -5 °F    
Average Humidity 45    
Maximum Humidity 100    
Minimum Humidity 21    
Precipitation  
Precipitation 0.00 in - - ()
Sea Level Pressure  
Sea Level Pressure 29.93 in    
Wind  
Wind Speed 2 mph (NE)    
Max Wind Speed 7 mph    
Max Gust Speed -    
Visibility 10 miles    
Events      
Averages and records for this station are not official NWS values.
T = Trace of Precipitation, MM = Missing Value Source: NWS Daily Summary

Daily Weather History Graph

Daily Weather History Graph

Search for Another Location

Airport or City:

Trip Planner

Search our weather history database for the weather conditions in past years. The results will help you decide how hot, cold, wet, or windy it might be!

Date:

Astronomy

Apr. 13, 2014 Rise Set
Actual Time 5:58 AM AKDT 9:29 PM AKDT
Civil Twilight 4:50 AM AKDT 10:39 PM AKDT
Nautical Twilight 2:44 AM AKDT 12:55 AM AKDT
Astronomical Twilight Sun does not rise Sun does not rise
Moon 7:46 PM AKDT (4/13) 5:48 AM AKDT (4/13)
Length of Visible Light 17h 49m
Length of Day
15h 31m
Waxing Gibbous, 98% of the Moon is Illuminated
Apr 13
Waxing Gibbous
Apr 14
Full
Apr 21
Last Quarter
Apr 28
New
May 6
First Quarter

Hourly Weather History & Observations

Time (AKDT) Temp. Windchill Dew Point Humidity Pressure Visibility Wind Dir Wind Speed Gust Speed Precip Events Conditions
12:16 AM 5.0 °F -4.1 °F -7.6 °F 56% 29.97 in 10.0 mi NNE 4.6 mph - N/A   Mostly Cloudy
12:36 AM 3.2 °F - -13.0 °F 47% 29.98 in 10.0 mi Calm Calm - N/A   Overcast
12:56 AM 3.2 °F - -27.4 °F 23% 29.97 in 10.0 mi Calm Calm - N/A   Overcast
1:16 AM 3.2 °F - -25.6 °F 25% 29.97 in 10.0 mi Calm Calm - N/A   Mostly Cloudy
1:36 AM 3.2 °F - -20.2 °F 33% 29.97 in 10.0 mi Calm Calm - N/A   Mostly Cloudy
1:56 AM 3.2 °F - -18.4 °F 36% 29.97 in 10.0 mi Calm Calm - N/A   Scattered Clouds
2:16 AM 3.2 °F - -9.4 °F 56% 29.96 in 10.0 mi Calm Calm - N/A   Partly Cloudy
2:36 AM 3.2 °F - 3.2 °F 100% 29.96 in 10.0 mi Calm Calm - N/A   Scattered Clouds
2:56 AM 5.0 °F -2.1 °F -27.4 °F 21% 29.96 in 10.0 mi ENE 3.5 mph - N/A   Partly Cloudy
3:16 AM 3.2 °F -6.2 °F -22.0 °F 30% 29.96 in 10.0 mi ENE 4.6 mph - N/A   Scattered Clouds
3:36 AM 3.2 °F -4.2 °F -16.6 °F 39% 29.96 in 10.0 mi ENE 3.5 mph - N/A   Partly Cloudy
4:16 AM 3.2 °F -7.8 °F -5.8 °F 66% 29.94 in 10.0 mi NNE 5.8 mph - N/A   Partly Cloudy
4:36 AM 3.2 °F - -16.6 °F 39% 29.94 in 10.0 mi Calm Calm - N/A   Clear
4:56 AM 3.2 °F - -27.4 °F 23% 29.94 in 10.0 mi Calm Calm - N/A   Clear
5:16 AM 1.4 °F - -25.6 °F 27% 29.94 in 10.0 mi Calm Calm - N/A   Clear
5:36 AM 3.2 °F - -18.4 °F 36% 29.94 in 10.0 mi Calm Calm - N/A   Scattered Clouds
5:56 AM 3.2 °F - -14.8 °F 43% 29.94 in 10.0 mi Calm Calm - N/A   Partly Cloudy
6:16 AM 3.2 °F - -11.2 °F 51% 29.93 in 10.0 mi Calm Calm - N/A   Clear
6:36 AM 1.4 °F - -11.2 °F 56% 29.93 in 10.0 mi Calm Calm - N/A   Clear
6:56 AM 1.4 °F - -27.4 °F 25% 29.93 in 10.0 mi Calm Calm - N/A   Clear
7:36 AM 3.2 °F - -20.2 °F 33% 29.93 in 10.0 mi Calm Calm - N/A   Clear
7:56 AM 3.2 °F - -13.0 °F 47% 29.93 in 10.0 mi Calm Calm - N/A   Clear
8:16 AM 5.0 °F - -9.4 °F 52% 29.94 in 10.0 mi Calm Calm - N/A   Clear
8:36 AM 6.8 °F - -2.2 °F 67% 29.94 in 10.0 mi Calm Calm - N/A   Clear
8:56 AM 6.8 °F - -23.8 °F 23% 29.94 in 10.0 mi Calm Calm - N/A   Clear
9:16 AM 8.6 °F 0.1 °F -7.6 °F 48% 29.93 in 10.0 mi NE 4.6 mph - N/A   Clear
9:36 AM 8.6 °F 0.1 °F -5.8 °F 52% 29.93 in 10.0 mi NE 4.6 mph - N/A   Clear
9:56 AM 10.4 °F - -0.4 °F 62% 29.94 in 10.0 mi Calm Calm - N/A   Clear
10:16 AM 10.4 °F - -2.2 °F 57% 29.93 in 10.0 mi Calm Calm - N/A   Clear
10:36 AM 10.4 °F - -2.2 °F 57% 29.94 in 10.0 mi Calm Calm - N/A   Clear
10:56 AM 12.2 °F - -2.2 °F 53% 29.94 in 10.0 mi Calm Calm - N/A   Clear
11:16 AM 12.2 °F - -2.2 °F 53% 29.94 in 10.0 mi Calm Calm - N/A   Clear
11:36 AM 12.2 °F 4.3 °F -0.4 °F 57% 29.94 in 10.0 mi ENE 4.6 mph - N/A   Clear
11:56 AM 14.0 °F - -0.4 °F 53% 29.95 in 10.0 mi Calm Calm - N/A   Partly Cloudy
12:16 PM 15.8 °F 10.2 °F -0.4 °F 49% 29.94 in 10.0 mi East 3.5 mph - N/A   Mostly Cloudy
12:36 PM 17.6 °F 12.3 °F 1.4 °F 49% 29.93 in 10.0 mi ESE 3.5 mph - N/A   Overcast
12:56 PM 17.6 °F 12.3 °F 1.4 °F 49% 29.93 in 10.0 mi ESE 3.5 mph - N/A   Overcast
1:16 PM 17.6 °F 12.3 °F 1.4 °F 49% 29.93 in 10.0 mi SE 3.5 mph - N/A   Mostly Cloudy
1:36 PM 19.4 °F - -0.4 °F 42% 29.93 in 10.0 mi Calm Calm - N/A   Mostly Cloudy
1:56 PM 19.4 °F 12.8 °F 1.4 °F 46% 29.93 in 10.0 mi NNE 4.6 mph - N/A   Overcast
2:16 PM 21.2 °F - 3.2 °F 46% 29.93 in 10.0 mi Calm Calm - N/A   Overcast
2:36 PM 21.2 °F 13.6 °F -0.4 °F 39% 29.93 in 10.0 mi NNE 5.8 mph - N/A   Mostly Cloudy
2:56 PM 21.2 °F 13.6 °F 1.4 °F 42% 29.93 in 10.0 mi NNE 5.8 mph - N/A   Clear
3:16 PM 23.0 °F 15.8 °F 1.4 °F 39% 29.93 in 10.0 mi NE 5.8 mph - N/A   Clear
3:36 PM 23.0 °F 17.0 °F 3.2 °F 43% 29.93 in 10.0 mi NE 4.6 mph - N/A   Clear
3:56 PM 24.8 °F 19.1 °F 1.4 °F 36% 29.92 in 10.0 mi East 4.6 mph - N/A   Clear
4:16 PM 24.8 °F 20.5 °F 1.4 °F 36% 29.93 in 10.0 mi ENE 3.5 mph - N/A   Clear
4:36 PM 24.8 °F - 1.4 °F 36% 29.92 in 10.0 mi Calm Calm - N/A   Clear
4:56 PM 24.8 °F - 1.4 °F 36% 29.92 in 10.0 mi Calm Calm - N/A   Clear
5:16 PM 26.6 °F - 3.2 °F 37% 29.92 in 10.0 mi Calm Calm - N/A   Clear
5:36 PM 26.6 °F 20.0 °F 3.2 °F 37% 29.91 in 10.0 mi NE 5.8 mph - N/A   Clear
5:56 PM 26.6 °F 20.0 °F 1.4 °F 34% 29.91 in 10.0 mi NNE 5.8 mph - N/A   Clear
6:16 PM 26.6 °F 19.1 °F 3.2 °F 37% 29.91 in 10.0 mi NNE 6.9 mph - N/A   Scattered Clouds
6:36 PM 24.8 °F 19.1 °F 3.2 °F 40% 29.91 in 10.0 mi NNE 4.6 mph - N/A   Scattered Clouds
6:56 PM 24.8 °F 17.9 °F 3.2 °F 40% 29.91 in 10.0 mi NE 5.8 mph - N/A   Clear
7:16 PM 24.8 °F 17.9 °F 3.2 °F 40% 29.90 in 10.0 mi NE 5.8 mph - N/A   Clear
7:36 PM 24.8 °F 17.9 °F 3.2 °F 40% 29.91 in 10.0 mi East 5.8 mph - N/A   Partly Cloudy
7:56 PM 23.0 °F 17.0 °F 3.2 °F 43% 29.91 in 10.0 mi East 4.6 mph - N/A   Scattered Clouds
8:16 PM 24.8 °F 17.9 °F 3.2 °F 40% 29.90 in 10.0 mi ENE 5.8 mph - N/A   Mostly Cloudy
8:36 PM 23.0 °F 17.0 °F 3.2 °F 43% 29.91 in 10.0 mi ENE 4.6 mph - N/A   Scattered Clouds
8:56 PM 21.2 °F 14.9 °F 3.2 °F 46% 29.91 in 10.0 mi East 4.6 mph - N/A   Partly Cloudy
9:16 PM 21.2 °F 14.9 °F 3.2 °F 46% 29.91 in 10.0 mi ENE 4.6 mph - N/A   Mostly Cloudy
9:36 PM 21.2 °F 14.9 °F 3.2 °F 46% 29.91 in 10.0 mi NE 4.6 mph - N/A   Overcast
9:56 PM 21.2 °F - 3.2 °F 46% 29.91 in 10.0 mi Calm Calm - N/A   Overcast
10:16 PM 21.2 °F 14.9 °F 3.2 °F 46% 29.90 in 10.0 mi ENE 4.6 mph - N/A   Partly Cloudy
10:36 PM 21.2 °F - 5.0 °F 50% 29.90 in 10.0 mi Calm Calm - N/A   Scattered Clouds
10:56 PM 21.2 °F - 5.0 °F 50% 29.90 in 10.0 mi Calm Calm - N/A   Overcast
11:16 PM 19.4 °F - 8.6 °F 63% 29.90 in 10.0 mi Calm Calm - N/A   Overcast
11:36 PM 21.2 °F - 6.8 °F 54% 29.90 in 10.0 mi Calm Calm - N/A   Overcast
11:56 PM 21.2 °F 16.4 °F 8.6 °F 58% 29.90 in 10.0 mi NNW 3.5 mph - N/A   Overcast